Wind_Speed
22 20 16 15 14 11 12 16 15 26 19 8 17 15 13 10 10 11 10 4 9 10 9 7 5 5 6 6 6 5 2 3 3 6 4 5 7 4 5 9 6 7 5 5 10
17 15 14 14 14 16 17 15 19 16 24 12 20 19 14 11 11 14 4 9 11 8 9 8 9 7 6 4 3 3 3 6 4 1 2 8 5 12 6 11 9 12 17 15 14
19 16 17 19 19 17 18 18 20 20 14 20 16 23 14 9 6 6 14 13 12 9 8 10 8 6 4 3 2 2 4 3 4 6 8 7 14 11 6 10 10 10 12 19 21
18 17 19 20 21 20 18 18 16 20 17 18 16 28 13 8 3 1 12 15 11 10 12 10 8 5 3 2 1 1 5 5 5 9 10 8 9 13 19 22 29 32 34 29 26
20 23 20 22 21 21 19 17 15 13 16 16 9 15 13 8 1 7 16 16 13 13 10 8 8 5 4 2 2 2 3 10 14 19 19 20 16 16 23 31 35 38 35 34 28
19 20 22 19 21 19 19 17 17 12 21 22 11 23 16 6 7 16 19 14 11 12 11 9 6 4 4 2 1 3 10 15 15 20 15 13 15 9 21 25 26 28 33 32 29
17 18 17 15 15 14 16 18 18 17 17 22 21 28 15 8 19 18 14 9 11 11 12 8 7 4 3 2 4 7 7 7 10 6 5 4 5 10 28 24 30 31 32 34 33
18 18 20 17 13 11 14 16 17 19 17 18 34 24 7 13 20 15 14 14 14 12 8 6 4 3 1 2 5 4 2 5 3 3 6 6 7 12 17 20 24 27 30 32 32
16 23 12 8 8 10 7 10 7 5 19 25 20 14 8 19 23 17 15 16 12 9 7 5 4 3 2 1 3 2 2 3 7 2 3 6 9 6 19 18 24 31 34 32 31
14 16 14 9 7 5 1 6 15 22 25 21 17 10 14 13 22 19 11 14 11 12 9 3 2 2 2 1 2 0 3 4 7 5 1 12 22 24 31 22 27 30 32 32 32
14 16 15 18 12 7 8 7 13 12 11 3 12 13 17 20 17 13 12 11 6 6 3 2 3 5 7 6 2 1 5 14 14 13 10 15 18 22 27 18 21 28 26 25 25
13 13 11 13 9 12 10 8 9 10 11 14 19 24 26 21 9 13 14 5 4 2 5 2 6 9 5 5 6 8 11 15 14 8 5 13 18 20 18 13 20 23 20 22 22
15 16 13 14 16 13 16 14 14 11 6 10 15 15 10 12 6 13 14 4 3 1 3 5 4 2 6 3 4 10 8 14 13 13 12 11 11 5 4 4 6 9 13 15 18
21 15 11 9 11 11 8 9 8 3 4 7 6 6 7 7 6 12 14 2 2 6 3 5 7 6 2 4 7 10 7 11 11 8 4 6 9 4 5 8 6 13 12 16 19
17 14 15 12 8 11 4 7 2 3 6 5 4 4 4 6 13 6 12 2 0 2 2 6 3 2 1 4 4 7 4 7 9 11 8 8 6 5 6 8 10 13 18 18 17
18 12 12 18 14 11 10 5 3 6 6 3 4 4 1 3 3 5 2 3 2 3 4 8 5 3 5 3 5 7 9 12 10 5 5 1 6 4 5 12 13 12 20 21 15
17 13 13 13 13 8 6 3 5 6 0 3 3 2 0 2 3 2 3 2 3 3 3 5 2 3 3 4 2 4 6 4 4 1 4 2 4 3 16 22 9 9 11 11 6
13 14 14 14 7 2 2 3 9 5 5 4 3 2 2 3 3 4 2 2 5 1 1 3 6 5 3 4 3 3 2 2 4 2 3 2 5 4 15 10 14 15 11 16 15
14 14 19 16 9 4 5 7 3 1 3 4 1 2 2 2 4 3 4 2 0 7 3 2 4 1 4 3 3 1 4 2 3 3 2 3 1 2 18 15 16 20 19 17 24
14 10 26 13 11 8 5 8 2 2 1 2 1 3 2 1 2 1 1 1 0 2 2 1 5 4 2 1 6 5 3 2 2 4 2 3 3 5 14 13 13 12 16 20 24
11 6 24 9 13 14 6 4 3 4 1 2 1 2 1 1 2 1 1 3 3 2 4 2 3 4 1 5 3 1 2 3 2 2 2 3 3 6 8 10 12 14 18 19 22
10 3 22 13 8 5 3 3 4 4 1 3 1 0 3 5 2 1 1 3 7 4 3 6 2 4 6 3 3 3 4 2 2 2 2 1 3 4 5 9 11 12 11 18 22
6 8 19 13 4 4 5 3 2 6 4 4 2 2 1 2 2 3 4 5 8 5 4 4 1 4 7 4 4 2 3 4 0 2 2 3 1 2 4 2 5 9 14 19 22
4 3 9 15 10 3 6 5 6 7 2 6 4 3 4 5 4 2 3 1 6 6 8 2 1 2 3 4 2 6 8 3 2 2 2 2 4 2 3 4 5 12 16 18 20
6 2 3 3 6 4 4 5 6 7 10 13 5 6 3 3 4 5 4 5 1 5 2 0 1 2 4 4 3 2 4 5 4 4 2 6 5 4 6 6 7 12 13 15 15
5 3 3 3 4 6 5 5 7 7 6 6 4 6 6 3 1 2 3 2 1 4 2 3 2 2 3 7 6 3 7 5 5 4 7 4 0 5 5 8 9 11 12 12 12
12 8 3 4 2 3 2 5 5 7 2 4 4 3 5 3 8 13 10 11 5 2 2 1 3 2 4 5 7 5 2 2 1 1 6 5 6 6 4 7 13 12 11 10 10
Wind_Direction
293 296 299 293 299 304 309 312 303 258 250 217 241 238 241 233 233 239 238 213 182 168 177 180 183 176 161 118 113 126 78 238 230 165 243 7 16 338 295 278 297 280 297 291 323
283 295 293 301 298 300 296 298 308 295 237 233 221 229 226 228 229 245 209 185 175 176 184 196 165 154 92 101 126 114 143 213 237 241 313 317 323 320 310 298 290 268 273 264 269
291 290 290 292 295 293 286 293 300 305 267 224 226 215 217 212 229 267 203 166 157 173 180 172 161 149 93 117 123 132 200 227 268 268 292 304 306 290 286 282 259 260 265 289 288
277 290 294 289 283 277 279 280 289 283 297 231 226 208 197 182 172 155 182 157 168 169 176 161 165 120 104 118 81 302 250 259 281 296 308 293 295 291 271 267 282 282 283 281 278
282 281 298 287 280 273 268 270 276 279 280 211 225 196 174 181 210 133 138 157 170 169 182 173 151 117 115 121 17 201 286 289 288 295 286 283 268 262 272 279 274 277 279 279 276
301 294 296 287 276 268 258 257 270 272 250 217 198 190 181 161 152 147 165 162 169 173 146 139 138 128 104 94 119 320 305 293 291 279 277 270 271 267 267 271 274 275 276 275 273
312 307 302 288 272 257 248 252 263 267 212 224 213 169 165 139 153 166 165 155 163 160 141 135 133 126 98 42 339 308 312 312 269 275 254 259 273 233 266 274 272 276 278 280 271
319 318 306 287 263 244 240 259 274 262 220 208 178 177 142 146 162 168 168 140 137 141 136 128 144 140 149 32 3 354 3 340 283 156 265 148 263 253 279 272 262 266 270 276 275
341 340 309 298 243 243 253 276 294 174 173 164 140 127 117 155 163 162 158 142 141 132 119 86 142 130 121 94 4 360 280 256 303 250 264 189 282 259 297 265 263 269 270 269 273
13 3 30 72 137 146 110 121 107 137 127 136 149 121 141 162 150 152 153 146 131 139 122 104 83 156 209 158 191 357 317 288 267 300 287 288 280 281 281 252 253 261 263 262 265
28 38 44 43 84 83 46 146 102 81 111 182 120 99 129 144 137 142 166 156 133 133 110 111 86 220 220 218 174 277 269 283 280 274 281 264 268 274 274 254 236 250 254 251 254
38 36 38 45 77 103 74 80 72 117 64 91 102 100 121 133 144 161 162 152 150 137 111 155 257 235 212 211 231 266 281 292 289 279 255 281 276 274 282 265 240 248 257 255 265
48 46 66 70 103 100 102 103 98 94 77 38 85 101 117 137 121 157 166 143 114 115 168 176 242 43 181 205 224 253 253 280 277 293 264 281 278 253 256 309 295 258 262 265 259
52 60 64 78 73 82 88 115 112 73 83 20 43 48 100 113 78 164 176 139 183 209 215 241 248 230 256 240 222 272 240 268 289 295 292 54 296 246 330 317 349 324 298 285 266
41 49 52 60 78 64 129 148 96 325 70 33 32 37 100 33 130 171 183 2 92 254 151 254 282 322 263 234 191 242 324 273 270 263 295 251 256 275 2 333 329 308 314 304 286
43 46 58 65 76 73 89 104 15 43 62 52 352 112 51 36 49 112 95 226 287 284 219 238 262 227 218 267 226 284 296 276 257 244 246 238 211 299 349 307 300 295 309 313 279
45 55 61 69 56 88 113 342 39 63 314 58 104 259 97 113 85 105 151 206 200 63 338 335 240 256 205 289 286 200 286 316 351 246 245 319 250 299 324 316 283 274 323 29 1
25 40 42 36 28 17 290 62 63 40 78 92 109 67 80 158 107 173 150 266 219 152 358 329 329 192 153 205 269 300 260 267 289 288 291 291 332 338 331 359 53 55 76 57 60
5 36 20 10 16 51 90 56 75 78 170 118 39 83 20 293 138 161 210 239 216 191 167 297 268 171 186 222 189 66 223 204 275 234 264 295 314 295 344 4 50 39 60 54 58
8 347 10 22 41 47 70 87 82 17 10 141 153 180 156 207 110 157 249 358 209 126 98 292 287 209 238 219 231 229 351 266 235 317 317 336 71 343 340 346 35 46 38 50 82
18 13 360 21 41 49 65 72 341 345 263 207 349 79 83 100 54 345 352 323 159 188 193 193 225 284 109 190 158 260 261 241 283 175 333 351 32 357 360 2 45 44 40 52 61
39 41 5 12 49 23 48 345 329 295 287 267 233 227 178 160 142 181 251 243 204 188 220 201 263 278 240 166 171 171 248 231 153 305 50 91 33 12 17 36 51 61 71 67 80
43 15 23 30 63 355 333 346 296 352 350 351 304 15 20 142 23 207 218 236 198 187 219 193 307 334 339 20 28 54 255 252 0 37 2 95 24 205 257 152 343 66 84 89 91
64 29 25 51 54 31 7 350 349 346 315 346 340 18 58 36 17 22 335 293 204 220 225 171 96 158 174 236 289 319 312 233 153 108 156 105 175 159 136 113 92 100 100 96 93
57 69 58 359 354 27 10 334 347 4 351 19 18 29 320 28 3 13 334 340 27 358 91 187 357 44 279 304 331 274 320 22 105 131 130 172 160 195 174 161 146 122 112 101 96
94 121 95 75 358 11 3 17 6 330 12 347 34 340 10 69 322 309 343 55 260 322 95 350 283 9 300 332 352 346 12 31 40 82 68 124 129 188 178 159 152 147 135 120 110
122 115 113 352 41 61 338 315 358 358 307 37 325 333 360 326 287 287 279 277 258 311 329 69 126 75 272 343 342 343 328 337 289 108 143 164 219 150 174 190 183 171 159 141 128
Height
1478 1477 1475 1475 1474 1474 1473 1473 1472 1473 1476 1477 1479 1481 1483 1484 1484 1484 1485 1486 1488 1490 1492 1495 1495 1494 1496 1498 1501 1504 1512 1516 1508 1508 1503 1501 1502 1501 1501 1499 1500 1501 1500 1499 1498
1473 1473 1471 1470 1470 1469 1469 1469 1470 1469 1471 1473 1476 1478 1480 1481 1482 1481 1484 1484 1489 1491 1493 1495 1495 1496 1498 1500 1502 1504 1513 1511 1506 1504 1502 1501 1503 1502 1501 1498 1496 1498 1498 1498 1497
1470 1468 1466 1466 1466 1465 1465 1465 1465 1467 1466 1469 1473 1472 1476 1478 1482 1479 1481 1485 1488 1490 1492 1494 1495 1497 1500 1502 1503 1505 1509 1505 1504 1504 1504 1502 1499 1501 1499 1494 1494 1494 1495 1496 1496
1464 1462 1461 1461 1461 1461 1461 1461 1461 1462 1464 1466 1469 1469 1473 1477 1483 1479 1480 1484 1487 1490 1492 1495 1498 1500 1501 1502 1503 1507 1504 1504 1503 1503 1503 1502 1500 1497 1497 1492 1493 1491 1490 1491 1493
1458 1458 1455 1454 1455 1456 1457 1458 1458 1459 1462 1464 1462 1466 1469 1478 1481 1481 1483 1487 1487 1490 1493 1496 1498 1499 1502 1503 1503 1505 1504 1503 1501 1502 1500 1499 1497 1496 1487 1489 1487 1484 1484 1484 1486
1453 1452 1451 1448 1450 1451 1452 1454 1456 1457 1460 1462 1466 1464 1469 1479 1481 1484 1485 1487 1489 1491 1493 1497 1499 1500 1503 1504 1506 1506 1503 1502 1499 1497 1498 1494 1492 1494 1483 1483 1482 1480 1477 1477 1479
1449 1448 1444 1444 1445 1446 1448 1450 1452 1454 1456 1459 1463 1460 1469 1476 1480 1485 1487 1489 1490 1492 1496 1498 1501 1502 1504 1506 1506 1504 1503 1500 1493 1493 1492 1490 1489 1485 1476 1479 1477 1473 1471 1470 1471
1445 1442 1439 1440 1441 1444 1446 1448 1448 1448 1451 1457 1454 1463 1470 1475 1479 1484 1488 1490 1492 1494 1497 1499 1501 1503 1505 1507 1507 1507 1507 1510 1493 1492 1490 1492 1483 1475 1476 1475 1473 1469 1466 1464 1464
1443 1439 1433 1435 1438 1441 1444 1446 1445 1443 1448 1453 1458 1465 1471 1477 1479 1486 1489 1491 1493 1495 1497 1499 1502 1505 1507 1509 1512 1511 1519 1511 1499 1489 1490 1490 1479 1471 1472 1471 1468 1464 1461 1459 1458
1443 1441 1436 1434 1438 1441 1443 1445 1443 1444 1450 1456 1464 1470 1474 1476 1480 1486 1491 1492 1493 1495 1498 1501 1503 1505 1507 1509 1523 1508 1512 1506 1503 1493 1490 1488 1476 1467 1462 1464 1460 1457 1454 1451 1451
1446 1445 1442 1442 1443 1443 1443 1444 1449 1454 1456 1459 1463 1464 1468 1475 1483 1488 1492 1493 1496 1497 1500 1504 1509 1513 1508 1507 1507 1508 1507 1504 1496 1492 1490 1482 1474 1460 1452 1455 1453 1449 1447 1445 1444
1449 1448 1446 1445 1443 1445 1446 1446 1452 1455 1457 1461 1463 1466 1472 1479 1485 1490 1493 1496 1496 1499 1502 1506 1507 1501 1502 1506 1505 1501 1500 1495 1490 1484 1485 1474 1464 1454 1449 1445 1442 1440 1440 1440 1441
1452 1451 1449 1449 1448 1450 1450 1452 1452 1455 1461 1469 1472 1476 1480 1484 1486 1491 1494 1495 1497 1499 1502 1508 1500 1498 1501 1500 1502 1496 1494 1488 1489 1482 1474 1471 1460 1451 1444 1441 1438 1437 1437 1436 1436
1457 1456 1454 1452 1454 1454 1456 1456 1458 1459 1465 1479 1478 1482 1483 1485 1489 1493 1495 1497 1496 1500 1502 1504 1497 1495 1494 1496 1494 1492 1483 1481 1479 1482 1479 1474 1462 1448 1446 1440 1438 1437 1434 1432 1432
1463 1461 1458 1455 1456 1456 1460 1460 1460 1460 1484 1487 1485 1486 1487 1487 1492 1496 1496 1496 1497 1498 1501 1500 1491 1489 1490 1489 1488 1486 1481 1482 1481 1478 1480 1466 1469 1447 1447 1442 1439 1436 1432 1429 1430
1467 1464 1463 1461 1461 1461 1461 1461 1462 1474 1486 1491 1490 1491 1490 1490 1491 1494 1496 1498 1499 1499 1497 1493 1489 1489 1487 1484 1484 1481 1481 1474 1474 1472 1466 1465 1463 1462 1450 1446 1439 1434 1430 1428 1426
1472 1469 1466 1465 1465 1465 1465 1464 1475 1488 1493 1492 1494 1493 1491 1493 1495 1496 1498 1500 1503 1511 1501 1491 1487 1484 1483 1485 1480 1482 1480 1486 1480 1478 1464 1458 1455 1457 1450 1442 1433 1432 1431 1429 1427
1478 1474 1472 1469 1468 1466 1466 1469 1484 1488 1489 1490 1492 1491 1492 1492 1495 1497 1499 1500 1496 1496 1497 1493 1498 1484 1482 1484 1482 1480 1480 1477 1471 1478 1463 1458 1457 1455 1454 1438 1434 1432 1433 1432 1429
1481 1477 1473 1470 1467 1465 1467 1475 1487 1489 1491 1491 1494 1492 1492 1491 1492 1494 1496 1495 1490 1492 1499 1490 1485 1479 1481 1480 1481 1473 1474 1474 1471 1467 1459 1459 1461 1462 1455 1444 1440 1437 1436 1436 1429
1481 1479 1475 1471 1469 1467 1470 1482 1491 1489 1489 1490 1490 1488 1491 1490 1491 1493 1493 1490 1491 1490 1491 1491 1490 1478 1478 1478 1477 1476 1477 1472 1471 1461 1453 1455 1459 1469 1463 1458 1447 1447 1443 1440 1438
1482 1482 1480 1476 1474 1473 1483 1491 1491 1489 1489 1489 1489 1487 1487 1489 1491 1494 1494 1492 1489 1489 1489 1489 1492 1477 1477 1478 1474 1475 1473 1472 1470 1470 1464 1459 1465 1476 1471 1465 1457 1455 1450 1448 1446
1485 1487 1486 1481 1482 1490 1496 1496 1493 1490 1488 1488 1488 1485 1487 1489 1492 1491 1492 1489 1487 1487 1487 1485 1483 1483 1470 1466 1468 1469 1470 1468 1474 1466 1476 1474 1474 1479 1474 1469 1465 1463 1459 1458 1456
1491 1492 1490 1485 1502 1502 1498 1496 1494 1491 1490 1488 1487 1485 1483 1486 1489 1490 1489 1484 1484 1486 1485 1483 1488 1489 1472 1470 1469 1470 1465 1462 1465 1468 1475 1478 1475 1475 1476 1475 1468 1466 1465 1464 1462
1494 1500 1497 1496 1503 1506 1508 1503 1498 1494 1493 1490 1489 1485 1485 1488 1488 1487 1486 1484 1484 1484 1482 1482 1487 1486 1494 1480 1477 1474 1468 1463 1463 1476 1470 1475 1477 1476 1475 1475 1472 1470 1468 1467 1467
1499 1506 1507 1512 1507 1508 1509 1508 1503 1501 1495 1493 1490 1494 1492 1491 1491 1492 1489 1486 1483 1483 1482 1484 1487 1493 1479 1477 1476 1473 1472 1465 1470 1467 1466 1474 1475 1475 1476 1474 1473 1472 1471 1470 1469
1504 1506 1507 1508 1509 1508 1508 1509 1508 1505 1503 1499 1498 1497 1495 1495 1495 1494 1494 1490 1488 1484 1483 1484 1493 1486 1479 1478 1478 1472 1471 1468 1467 1469 1472 1476 1471 1469 1471 1473 1474 1475 1475 1474 1473
1499 1503 1506 1510 1510 1511 1514 1511 1509 1507 1503 1504 1502 1500 1497 1497 1496 1493 1492 1490 1489 1486 1485 1485 1491 1496 1496 1485 1478 1479 1469 1470 1467 1466 1470 1474 1467 1468 1471 1471 1471 1473 1473 1473 1473